Theta_e
336 337 342 348 351 352 352 353 354 354 354 354 354 353 353 352 352 352 351 351 350 350 349 349 348 348 348 348 348 347 348 349 349 350 349 349 348 348 348 348 348 351 351 351 351 351 351 350 346 346 344 343 344 344 344 344 344 344 344 345 345 345 346 346 347 348 349 350 349 349 349 349 350 351 351 351 350 349 349 350 349 346 346 349 351
336 337 342 346 350 352 353 352 354 354 354 354 354 353 353 352 351 351 350 350 350 350 349 348 348 348 348 347 347 348 347 348 348 349 349 348 348 348 347 347 347 349 351 350 351 350 350 349 348 346 345 343 343 342 342 342 341 341 341 342 342 342 343 343 345 345 346 347 349 349 349 349 349 350 350 349 349 349 348 349 348 344 343 350 352
338 337 343 346 349 351 352 352 353 353 354 354 353 353 352 352 351 350 350 349 349 348 348 348 347 348 348 347 347 347 347 348 348 348 348 348 348 348 348 348 347 347 349 350 350 349 349 349 347 346 345 343 342 342 341 340 339 339 339 339 340 341 341 341 342 342 341 344 344 345 346 349 349 349 349 348 348 348 348 349 349 348 347 351 350
337 337 343 346 346 349 351 352 353 353 354 353 353 353 352 352 351 351 350 349 349 348 347 348 348 348 347 347 347 347 347 347 348 348 348 348 347 347 347 347 347 348 349 350 349 349 349 348 347 345 343 342 341 340 339 339 338 337 337 337 337 338 338 339 340 340 340 341 342 341 342 338 343 349 349 347 346 347 347 348 348 348 348 350 350
337 338 343 345 346 347 350 351 353 353 353 353 352 352 352 351 350 350 350 349 348 348 348 347 348 348 348 347 347 347 347 348 348 348 347 347 347 347 347 347 347 348 348 349 348 348 348 347 346 344 341 340 340 339 338 337 336 336 335 335 335 336 336 336 336 337 339 339 338 338 335 338 338 346 348 348 348 347 346 346 347 347 347 349 350
337 339 343 344 345 346 348 351 353 353 353 353 353 352 352 351 350 350 349 349 348 347 348 348 348 348 348 348 348 347 348 348 348 347 347 347 347 347 347 347 347 347 348 347 347 348 347 346 345 343 341 339 338 337 337 336 335 334 332 331 331 331 333 334 333 335 337 335 334 331 336 338 339 343 346 347 348 347 346 345 345 346 346 347 347
338 339 342 344 345 344 346 349 353 353 352 352 352 351 352 351 350 349 348 349 347 347 347 348 348 348 348 349 348 348 348 348 348 348 347 346 346 346 346 346 346 347 347 347 347 346 345 344 342 341 340 338 337 336 334 333 332 330 329 328 327 329 331 332 333 334 335 329 327 333 338 339 338 340 347 346 347 346 345 346 346 346 346 346 345
338 340 342 343 344 344 345 349 352 352 352 352 352 352 351 350 350 349 348 348 347 347 347 347 348 348 348 348 349 348 348 348 349 348 347 345 346 346 346 346 347 347 346 346 345 345 343 342 341 340 339 337 335 334 332 331 330 328 326 325 326 327 330 331 333 333 333 325 328 337 340 338 338 339 347 346 346 346 346 346 345 345 345 345 344
337 339 341 343 343 343 345 347 352 352 352 352 352 352 351 349 349 348 348 347 347 347 347 348 348 348 348 348 348 348 349 349 348 348 346 346 345 345 346 346 346 346 345 344 343 342 342 340 339 339 338 336 333 331 330 328 327 326 324 325 325 329 331 333 332 330 326 325 329 336 337 336 336 337 344 346 346 346 347 346 346 345 345 343 343
337 338 341 342 342 341 344 346 351 352 352 352 351 351 350 349 349 349 348 347 347 347 347 347 348 348 348 348 349 348 349 349 348 347 346 345 346 346 346 346 345 344 344 343 342 341 340 339 338 337 336 334 331 329 328 326 326 324 324 323 328 330 332 332 329 328 323 327 330 334 338 342 337 337 343 346 345 346 345 342 342 343 343 343 343
336 338 340 341 341 341 345 349 350 350 351 351 351 351 349 349 349 348 347 347 347 347 347 348 348 348 348 349 348 349 349 349 348 346 346 345 346 346 346 346 344 343 343 342 340 339 338 337 336 335 335 332 329 328 326 324 324 324 324 326 329 330 332 330 326 322 324 325 326 327 336 341 333 335 345 345 345 345 343 343 344 343 343 342 342
335 337 338 339 339 340 344 347 348 350 350 350 351 350 349 349 349 348 347 347 347 348 348 348 348 348 348 348 348 349 348 348 347 346 345 345 345 345 346 344 344 343 342 340 340 337 336 334 334 333 333 330 328 325 324 324 324 323 324 327 329 329 330 327 321 320 321 322 324 325 325 328 333 341 344 344 344 344 343 343 343 343 342 342 341
334 335 337 338 339 339 342 347 347 349 350 350 350 350 349 349 349 348 348 348 347 348 348 348 348 348 348 348 348 348 349 348 347 346 345 344 344 345 344 343 343 342 340 339 337 335 334 333 332 332 332 329 326 325 324 323 323 323 325 327 328 328 327 325 318 320 320 321 322 323 324 325 328 341 340 340 341 341 341 342 342 341 341 341 340
333 334 336 337 339 336 339 342 344 347 349 349 350 349 349 349 349 348 348 348 348 348 348 348 348 348 348 348 349 348 348 348 346 346 345 344 343 343 343 342 342 341 340 338 336 333 333 333 333 333 330 328 326 324 323 322 321 322 324 325 327 328 324 322 323 318 320 320 322 322 322 326 329 339 337 337 338 338 338 338 339 339 339 339 339
332 332 334 336 337 339 336 340 342 344 346 348 348 349 350 349 349 349 348 348 348 348 348 348 349 348 349 349 349 348 347 346 346 345 344 343 343 342 342 341 341 340 339 337 336 333 332 331 333 332 329 327 324 323 322 321 321 321 322 322 324 325 322 315 317 316 318 320 319 321 321 324 338 335 335 335 335 335 335 335 336 336 336 336 336
330 332 333 335 336 338 338 337 338 339 342 345 346 347 348 349 349 349 349 348 348 348 348 349 349 349 349 349 348 348 347 347 346 345 344 342 341 341 341 340 340 340 339 337 335 332 332 331 331 331 327 325 324 322 320 320 319 319 320 320 322 323 320 316 314 315 315 317 318 319 320 323 336 333 333 332 333 333 333 333 334 334 335 335 334
328 332 334 334 335 337 338 339 339 335 336 338 341 342 344 347 347 348 348 348 347 348 348 349 349 349 349 349 348 346 345 345 346 344 343 342 341 340 339 338 338 337 337 334 333 332 331 330 332 329 327 325 323 322 321 319 318 319 319 319 321 321 318 315 314 312 314 317 317 318 319 322 333 332 332 331 332 331 331 332 332 333 333 333 332
325 331 333 334 334 335 337 338 339 338 340 336 335 339 342 345 345 346 346 346 346 347 347 347 347 347 346 345 344 343 344 345 344 344 344 342 341 339 339 336 335 334 333 332 332 331 331 333 331 329 327 325 323 322 319 316 316 317 317 318 319 317 317 316 312 312 314 317 314 317 318 330 332 331 331 331 331 330 330 329 330 331 331 331 331
322 328 331 332 334 334 336 337 337 339 340 340 340 339 336 340 342 343 343 344 344 344 345 344 343 344 344 341 339 338 337 338 340 341 341 338 336 332 336 337 334 333 332 332 331 331 332 332 330 328 326 324 322 319 318 316 315 316 316 318 314 312 313 312 309 311 311 314 313 316 317 331 329 330 330 330 330 330 329 329 328 327 325 327 329
321 323 327 330 333 333 334 336 337 338 339 339 339 340 335 333 337 340 340 341 341 342 341 339 336 336 338 336 333 333 331 334 331 335 333 336 333 328 332 335 335 333 332 331 331 331 333 331 329 328 326 324 322 319 315 314 314 315 316 316 311 308 304 306 306 308 309 312 313 314 326 330 329 329 329 328 327 327 327 327 328 326 328 326 324
322 320 324 328 330 332 333 334 335 337 337 338 338 339 338 331 333 333 335 337 338 338 338 333 329 328 330 328 327 334 333 333 332 332 325 329 324 324 329 334 335 334 334 334 331 331 332 330 329 327 325 324 319 316 315 313 313 313 314 312 307 299 303 305 307 308 307 308 311 313 328 327 327 327 326 326 326 327 326 327 327 327 327 327 327
322 321 321 322 328 330 332 333 334 335 336 337 338 339 339 333 337 337 335 335 332 331 333 335 329 334 327 333 333 331 333 332 329 326 325 324 322 322 326 333 335 333 333 333 331 331 331 330 327 327 325 322 316 300 302 312 313 312 312 309 297 296 300 304 304 304 305 306 309 320 327 325 325 325 326 326 326 326 327 328 326 325 325 326 327
319 320 322 323 326 330 329 332 333 334 334 335 337 338 338 337 338 338 336 331 332 331 335 333 334 335 336 336 331 329 330 330 328 325 322 320 321 321 326 329 331 330 331 332 333 331 330 329 327 326 323 317 301 295 294 292 294 305 303 297 294 296 299 302 302 303 303 306 305 323 327 325 325 325 325 326 326 327 327 327 325 325 325 325 326
320 321 324 324 324 327 329 332 332 332 334 336 337 338 338 338 338 338 338 337 335 333 334 334 335 336 336 334 330 326 326 327 323 320 321 320 320 320 324 326 327 326 327 327 330 331 331 329 327 325 315 303 295 295 294 291 290 290 293 295 294 294 297 299 301 300 300 306 306 322 325 328 325 326 325 326 326 325 325 326 325 324 324 324 323
319 317 317 323 325 326 327 329 330 331 332 335 335 337 338 338 338 338 338 338 337 336 336 336 335 335 334 332 329 326 325 324 323 322 321 319 317 319 321 322 320 318 321 318 318 319 321 318 318 310 300 299 295 294 293 291 292 292 293 295 294 294 296 298 299 298 299 301 307 319 322 326 327 325 326 326 323 325 325 324 324 324 324 324 324
311 315 318 321 324 327 327 329 329 330 331 334 334 336 336 337 337 337 337 337 337 336 336 335 334 334 332 330 327 325 324 322 321 320 318 317 316 316 317 317 315 317 316 316 313 315 314 312 310 305 300 299 296 294 294 292 291 292 294 295 294 294 295 296 298 298 298 300 305 318 320 323 326 325 325 325 324 325 324 324 324 324 323 323 324
311 314 315 318 322 325 326 326 328 329 330 331 332 332 334 336 337 337 336 336 336 336 334 334 334 332 330 327 326 325 323 321 320 319 317 316 316 315 315 315 316 315 314 314 312 312 311 310 308 305 301 298 296 296 295 294 292 293 294 294 294 294 294 297 297 297 297 300 307 316 318 321 324 325 325 325 324 324 324 324 324 323 324 323 323
307 312 313 316 318 323 326 326 326 327 329 330 330 330 330 333 334 333 334 334 334 335 335 334 333 330 328 326 325 324 322 320 319 318 316 315 315 315 315 314 315 315 313 314 312 309 309 309 307 304 301 297 297 295 295 295 293 293 294 293 293 293 294 295 297 296 296 297 300 309 317 320 322 323 324 325 325 324 324 323 324 323 323 322 323
302 305 310 314 318 320 324 326 326 326 327 329 329 329 328 329 331 332 333 330 334 334 334 332 331 329 328 326 324 323 322 321 320 319 315 315 314 314 313 314 314 313 312 312 312 310 309 308 307 306 302 299 294 294 295 294 294 294 294 293 293 292 293 295 296 296 296 296 297 305 316 320 322 320 322 324 324 325 324 324 324 323 323 322 322
301 302 304 311 314 317 321 325 326 327 326 326 328 326 326 325 327 329 331 329 332 333 330 330 330 329 327 326 325 324 323 321 319 316 316 315 313 313 313 313 313 313 313 313 310 310 309 306 306 305 303 299 295 296 295 294 294 294 293 294 293 294 294 294 295 298 296 295 296 301 313 316 322 321 320 321 324 324 325 324 324 324 323 322 322
299 300 300 302 312 316 320 322 324 323 323 325 325 326 324 325 324 326 327 327 328 328 328 329 328 327 326 324 323 323 322 320 319 317 315 315 313 313 313 312 312 312 313 313 309 310 308 308 307 306 303 298 296 294 294 294 294 294 294 293 294 293 294 293 295 296 297 297 296 298 304 313 318 321 322 321 321 322 322 323 323 323 323 322 322
299 300 301 302 307 316 320 321 323 322 323 323 322 323 324 324 323 323 324 325 324 325 325 325 324 325 323 322 321 321 320 319 318 316 316 314 313 313 312 312 312 311 312 311 309 309 307 305 303 304 301 297 295 293 293 293 293 295 292 292 292 293 293 292 295 296 296 296 296 296 298 304 313 317 321 322 321 321 323 324 324 324 325 325 325
300 300 301 303 306 309 315 318 320 320 322 323 323 323 322 322 321 322 322 322 323 323 323 324 324 324 323 322 322 321 319 320 318 317 315 314 313 312 311 311 312 312 311 309 308 306 304 301 300 299 297 295 294 293 293 292 293 293 292 292 292 292 292 291 293 295 296 297 297 296 296 299 301 310 314 318 322 323 323 324 324 324 324 323 323
299 300 302 304 308 311 313 317 317 319 320 320 320 320 321 320 320 320 320 321 321 322 322 322 322 322 322 321 322 321 319 318 318 315 315 314 312 312 312 311 311 310 310 308 308 305 303 300 299 297 297 295 294 293 292 291 291 291 292 290 290 292 292 292 292 295 296 297 297 295 296 296 297 298 301 312 316 320 322 322 323 323 322 322 322
299 300 300 302 304 306 311 315 312 313 314 317 317 317 316 319 317 318 319 320 320 321 320 320 320 321 321 320 320 319 318 318 317 317 314 313 312 311 311 312 310 309 310 308 308 303 302 301 296 296 293 293 292 292 292 292 291 292 292 291 292 290 290 292 291 292 294 295 296 296 296 295 295 296 298 297 305 311 318 320 321 322 322 321 320
298 299 300 301 302 303 305 309 311 311 311 311 311 313 314 313 315 316 319 318 318 319 318 319 320 318 319 319 319 319 318 317 315 315 315 313 313 312 312 309 309 309 309 306 306 303 300 299 296 296 293 292 291 291 290 291 290 292 290 291 290 291 290 290 291 291 292 293 297 297 297 296 295 295 298 295 297 303 311 316 318 319 319 320 319
298 298 299 300 300 301 302 304 307 311 312 313 313 313 313 313 313 314 313 314 315 315 315 316 317 317 317 318 317 318 317 315 314 314 315 313 312 312 309 309 308 308 307 305 304 303 299 299 295 294 295 293 291 290 289 289 290 291 290 289 290 291 291 291 291 292 291 291 294 296 295 295 294 300 294 293 294 296 305 311 314 314 316 318 318
297 297 298 299 299 300 301 301 303 306 310 311 312 313 314 314 314 314 313 314 313 313 314 314 314 313 314 315 315 316 315 315 314 314 314 313 313 312 309 308 307 307 305 303 304 299 298 298 296 293 293 292 291 290 290 289 290 290 290 289 289 289 290 290 291 294 291 291 291 293 296 296 295 295 293 293 293 294 297 305 309 309 309 314 318
295 296 297 298 299 299 300 300 301 303 306 308 310 312 313 314 313 313 313 313 314 313 313 313 312 314 313 312 314 314 314 314 314 313 313 312 311 311 310 308 307 306 304 302 299 296 296 296 297 293 291 291 292 291 290 290 289 289 288 288 288 288 288 289 291 292 290 291 291 293 291 293 294 293 293 292 292 292 293 293 293 294 297 310 316
294 295 295 296 297 298 298 299 299 300 303 306 306 307 309 308 309 311 310 309 311 311 311 311 311 312 312 313 312 312 312 313 313 313 313 311 311 310 310 307 306 305 304 301 298 296 296 295 295 294 292 290 289 288 288 289 287 287 288 288 287 287 288 289 289 289 291 290 291 291 290 290 292 292 292 292 291 292 292 291 292 292 292 301 310
293 293 294 294 295 295 296 296 298 299 300 302 303 303 303 304 305 305 305 306 307 309 309 309 309 309 310 310 311 311 312 312 310 311 311 309 310 309 308 306 304 304 304 304 302 300 299 297 295 292 292 290 288 287 288 289 288 287 286 285 287 286 288 289 287 289 290 289 289 290 289 289 287 289 291 290 289 289 290 290 290 291 292 292 298
291 292 292 293 293 294 294 295 296 297 297 298 300 301 301 300 301 300 301 303 304 305 306 307 307 308 307 308 309 310 310 310 309 308 308 307 306 305 306 306 305 305 305 304 301 299 297 296 294 292 290 291 290 288 290 290 287 285 285 285 285 286 286 287 287 288 288 288 289 290 290 289 289 288 287 288 288 288 288 289 289 289 290 291 294
291 291 291 292 292 292 293 294 294 295 296 297 298 298 298 300 300 299 300 299 300 300 301 300 303 304 304 304 305 307 307 307 307 307 308 306 305 304 302 302 302 302 302 301 300 298 297 296 294 296 292 289 289 288 289 290 287 284 282 283 282 284 286 287 287 288 288 287 288 289 290 289 289 288 288 288 288 287 287 288 288 288 287 288 291
290 290 290 291 291 291 292 292 293 293 294 295 296 297 297 297 297 297 298 298 297 298 299 301 301 302 302 301 301 300 302 303 302 303 304 303 303 303 301 301 301 301 302 301 299 299 297 295 294 294 295 292 290 290 290 290 286 287 284 285 281 281 280 283 286 286 287 288 288 289 288 289 289 288 287 288 288 287 288 287 288 288 287 287 289
288 289 289 290 291 290 291 291 292 292 292 293 294 296 297 296 297 297 297 297 297 296 295 295 295 297 299 300 300 299 300 300 299 299 299 298 298 300 300 300 300 300 300 300 299 299 298 297 296 295 293 295 293 290 291 291 289 290 288 281 281 282 281 279 281 283 283 286 287 288 289 289 288 288 287 287 287 287 288 287 287 287 287 287 287
287 288 289 289 290 290 290 291 291 291 291 292 293 294 294 294 293 293 292 292 291 292 291 291 292 292 293 294 295 296 297 299 298 298 297 297 297 295 295 296 297 299 299 300 299 299 298 296 296 295 294 294 295 292 290 291 292 290 287 285 285 282 282 280 283 282 281 283 285 286 287 288 287 288 287 287 287 287 287 288 287 287 287 287 287
286 287 288 288 289 289 289 290 290 290 291 291 291 292 291 291 291 291 290 290 289 290 290 291 291 291 292 292 292 293 293 293 295 296 296 296 296 295 294 294 294 295 296 298 297 297 298 297 296 295 295 295 292 291 291 291 291 291 290 288 286 284 282 283 283 281 281 282 283 285 286 285 285 286 287 287 287 287 287 287 287 287 287 287 287
286 287 287 287 287 288 288 288 289 289 289 290 290 291 290 290 289 289 290 289 289 288 289 290 290 291 291 290 291 291 291 292 292 292 292 293 293 295 295 294 293 291 293 294 295 295 296 297 296 296 295 294 293 292 292 291 290 291 292 291 289 286 283 284 281 284 283 281 281 282 282 285 285 286 287 287 287 287 287 287 287 287 286 287 287
286 286 286 286 287 287 288 288 288 288 288 288 289 289 290 289 288 288 288 288 289 288 289 290 289 289 289 289 289 290 290 290 290 291 291 291 291 292 293 294 294 292 290 291 291 292 293 294 294 295 294 294 294 293 292 292 291 291 290 290 290 289 287 286 284 283 283 281 282 281 282 283 283 285 286 287 287 287 288 287 287 287 287 287 287
285 286 285 286 286 287 287 287 286 287 287 287 287 287 288 288 287 287 287 287 287 287 288 288 288 288 288 288 288 288 289 289 289 289 290 290 290 290 291 291 292 292 291 290 289 289 290 291 293 294 294 294 294 293 292 293 292 292 292 292 289 289 287 287 284 284 284 283 285 283 281 282 283 285 287 287 287 287 287 286 286 287 287 287 287
284 285 285 285 285 285 285 285 286 286 286 286 286 286 286 287 286 286 286 285 286 286 285 285 286 286 286 287 287 287 288 288 288 288 289 289 289 289 289 290 291 291 292 292 292 291 290 289 289 289 291 293 293 293 293 292 292 291 291 291 291 290 289 288 287 286 286 285 283 283 281 282 284 284 284 287 288 287 286 285 286 286 287 287 287
Wind_Speed
7 12 10 14 15 16 18 18 18 18 17 18 16 15 14 13 13 13 12 12 11 11 10 10 10 11 11 10 10 11 11 11 11 10 10 10 9 9 8 8 8 8 7 9 10 12 11 12 12 11 11 11 11 11 10 10 10 9 9 9 10 10 10 11 10 10 10 10 10 9 8 9 10 10 11 12 11 10 8 7 5 4 5 7 10
12 11 11 11 17 17 17 19 18 18 17 17 17 16 15 14 13 12 11 11 11 11 11 10 10 10 11 11 11 10 11 10 10 10 9 9 9 8 7 7 7 7 7 8 11 12 12 12 12 11 10 10 10 10 10 9 9 9 8 9 9 9 9 10 9 9 10 9 8 8 7 9 10 11 11 11 11 10 7 6 6 4 3 10 11
10 10 10 12 16 18 17 19 19 18 18 18 17 16 16 14 13 12 11 11 11 11 11 11 10 11 11 10 10 10 10 10 10 9 9 8 8 7 7 6 6 7 9 10 11 12 12 12 12 11 10 9 9 10 9 9 8 8 8 8 8 8 9 8 8 8 7 7 7 7 7 8 10 11 11 11 11 11 8 8 7 6 6 12 10
11 10 9 13 15 17 17 18 17 17 16 15 15 14 15 14 14 14 13 12 11 11 11 11 11 11 10 10 11 10 10 10 9 9 8 8 7 7 6 6 6 7 8 10 10 11 12 12 12 11 10 9 9 9 9 8 8 8 8 7 7 8 8 8 7 6 6 6 5 5 2 3 4 9 11 11 12 11 9 8 8 8 11 12 13
10 9 10 10 11 14 17 18 18 16 16 15 15 15 15 15 15 15 14 13 13 12 11 11 11 11 11 11 11 11 10 9 9 8 8 7 6 6 6 7 6 7 9 10 10 11 11 12 12 11 9 9 9 8 8 8 8 8 8 8 8 8 8 8 7 7 6 5 4 2 2 2 2 8 10 11 11 11 9 9 10 10 9 12 13
9 9 9 9 10 11 16 16 18 18 16 17 15 15 15 15 15 14 14 14 14 13 13 13 12 12 12 12 11 11 11 10 10 9 7 6 5 5 6 6 7 8 9 9 10 11 12 12 11 10 9 9 8 8 7 7 7 7 7 7 8 8 8 8 7 7 6 5 3 1 2 2 3 3 9 9 10 10 10 10 10 10 10 12 12
11 8 9 9 8 10 14 15 16 17 18 17 17 17 16 15 14 14 13 14 14 14 14 14 13 13 13 12 12 11 11 10 10 10 9 7 5 5 4 6 7 9 10 9 10 10 10 10 9 8 8 8 8 7 7 7 7 7 7 7 7 8 8 8 7 8 7 4 2 3 4 2 2 2 6 8 10 10 10 10 10 10 10 11 12
7 8 9 9 8 10 14 15 14 17 17 16 16 17 17 15 13 15 14 14 13 14 14 14 14 13 13 12 12 12 11 10 10 10 9 8 6 6 5 6 9 9 9 10 10 10 9 9 7 7 7 8 8 7 7 7 7 7 7 7 7 7 8 8 8 7 6 3 3 4 4 2 3 1 5 6 7 9 10 10 10 11 11 12 9
8 8 9 9 8 13 14 14 15 15 17 16 15 15 15 17 15 16 15 15 14 14 14 14 14 13 13 12 12 12 12 11 11 10 10 9 8 7 7 8 8 9 9 8 8 8 8 7 6 5 6 7 7 7 7 7 7 7 6 7 7 7 8 8 8 6 3 3 3 4 4 3 2 2 4 7 7 8 10 8 8 11 11 10 9
7 8 9 9 8 13 15 15 15 16 18 17 14 13 15 16 14 16 16 15 15 14 14 14 14 13 13 12 12 12 11 11 11 11 10 10 10 9 9 10 9 8 8 7 7 7 6 6 5 4 4 6 6 6 6 6 6 6 6 6 7 8 8 8 8 5 4 4 4 4 4 4 3 3 5 9 8 10 10 8 7 6 6 9 10
8 8 8 9 10 14 16 16 16 15 17 16 15 14 16 15 14 15 15 15 16 16 15 14 14 14 13 13 13 12 12 12 11 11 11 11 10 10 11 11 10 7 7 7 6 5 5 4 5 3 5 6 6 5 5 6 5 6 6 6 7 8 9 8 7 5 5 5 5 4 3 4 3 2 8 9 9 9 8 7 7 8 9 9 9
8 7 8 7 11 15 16 16 16 16 16 16 15 15 17 16 15 15 15 15 15 15 15 14 14 13 13 13 12 12 12 13 13 11 11 11 11 11 10 10 9 8 6 3 7 3 3 3 3 4 6 6 5 4 5 5 5 5 6 7 8 9 10 9 6 5 5 5 5 3 3 2 2 6 11 11 9 9 8 8 8 8 8 8 7
8 8 7 7 8 13 15 17 15 16 16 16 16 18 17 17 16 15 14 14 14 14 13 13 12 12 12 12 12 11 13 13 13 12 11 11 11 11 11 10 9 8 6 4 1 3 5 2 2 4 8 6 5 5 5 5 5 6 7 8 9 9 9 9 5 5 5 4 4 4 3 2 0 6 8 8 8 8 8 7 8 7 8 7 7
8 9 8 8 8 13 15 15 15 15 15 16 16 17 17 17 17 16 16 14 13 13 12 12 12 11 12 11 11 11 12 14 14 13 12 11 11 11 10 9 8 8 7 5 4 3 3 4 6 7 7 7 5 5 4 4 5 7 8 9 9 9 8 6 5 4 5 5 4 4 4 3 4 6 6 5 5 5 5 6 7 8 8 8 8
10 9 9 8 8 10 16 15 14 15 14 15 15 16 17 16 17 16 16 15 14 13 13 12 10 11 10 9 11 13 14 13 15 13 12 11 11 10 9 8 8 7 6 6 4 2 2 2 7 7 6 6 5 5 4 5 6 7 8 9 9 9 8 5 4 4 4 4 4 4 5 4 3 7 5 5 5 3 4 4 3 4 5 5 7
8 9 8 8 8 9 10 13 15 15 14 15 14 15 15 15 15 15 15 15 15 14 12 11 11 10 9 9 11 13 14 15 15 14 12 11 9 9 8 8 7 7 8 6 5 3 4 4 4 10 6 5 5 5 4 5 6 7 8 8 7 8 7 6 5 4 4 4 3 4 4 4 6 5 5 5 5 4 3 3 3 3 4 5 6
5 7 8 8 8 8 10 10 12 15 14 14 15 15 14 14 14 15 14 14 14 14 13 12 11 10 9 9 11 12 11 12 12 13 12 10 10 8 8 7 7 6 7 7 5 5 4 3 10 9 7 5 4 5 5 5 6 6 7 7 7 8 7 6 5 4 4 3 3 4 4 3 4 6 5 5 4 4 3 3 3 4 3 4 5
4 5 8 8 8 8 10 9 10 11 10 11 14 15 14 14 14 14 14 14 14 14 13 12 11 11 10 9 10 10 11 12 11 11 10 10 10 8 7 8 8 7 6 4 6 6 5 10 11 9 6 5 5 5 5 6 6 7 6 7 7 8 7 7 4 4 4 4 4 3 4 4 5 5 5 4 4 5 3 2 3 3 3 3 4
4 4 4 7 8 8 9 8 9 9 10 8 8 12 15 15 14 14 14 14 14 14 13 12 11 10 11 10 10 11 11 11 12 12 11 11 11 10 9 9 8 9 7 6 6 6 9 11 10 8 7 6 5 5 5 6 6 7 6 6 7 8 8 5 4 4 3 4 3 4 3 2 5 5 4 4 4 5 3 2 2 2 1 2 2
3 4 4 5 6 7 7 8 8 9 9 8 9 9 12 14 14 14 14 14 13 13 12 11 11 10 11 11 11 10 10 10 12 10 11 13 12 9 10 8 9 9 8 7 7 7 12 10 8 8 8 7 6 5 5 5 6 6 6 6 7 7 5 4 4 4 3 3 2 3 4 3 4 4 4 4 4 3 2 2 3 2 2 2 1
1 3 4 4 4 7 8 7 8 9 9 9 7 9 10 12 11 13 14 13 13 13 12 11 10 9 10 10 10 8 6 6 9 7 11 9 11 11 10 9 9 8 7 6 8 8 13 9 8 7 8 7 6 5 4 5 6 6 6 6 6 6 4 4 4 3 3 2 3 3 4 3 3 4 4 4 4 4 3 3 3 3 3 3 4
5 5 4 3 5 5 7 8 7 9 8 8 6 7 7 10 9 8 8 10 10 11 9 7 7 5 9 9 6 6 5 5 5 7 6 7 9 12 10 9 9 7 7 7 7 8 10 10 8 8 8 8 7 2 2 3 5 6 5 5 5 4 3 4 4 3 3 2 3 4 5 2 2 4 4 5 4 5 4 4 4 4 3 4 4
6 6 6 6 6 6 6 8 8 8 9 8 7 6 7 7 8 8 7 9 8 8 7 7 6 6 7 6 6 5 5 5 6 6 6 9 9 11 11 10 9 8 7 7 7 9 9 9 9 9 9 7 3 2 1 1 2 5 5 4 4 3 3 4 3 3 2 1 2 5 6 1 2 3 4 5 5 5 5 5 5 5 4 4 5
8 8 9 5 6 7 9 9 9 8 8 8 7 7 7 6 7 7 7 7 7 7 6 6 6 6 7 6 5 5 5 5 6 10 9 6 7 10 11 11 10 9 9 6 6 8 9 10 10 9 7 4 3 2 1 1 3 3 3 3 3 3 4 3 3 3 2 2 2 5 6 5 1 3 4 4 4 4 5 6 4 3 3 3 3
8 5 4 8 9 9 8 8 8 7 8 8 8 8 7 6 6 7 7 6 6 6 6 6 6 7 7 6 5 5 4 4 5 5 5 6 5 5 5 6 5 5 7 5 4 4 6 6 5 7 4 4 4 3 3 3 2 2 2 1 2 3 3 3 4 3 2 1 1 4 5 5 3 3 5 5 4 4 4 4 5 4 4 3 4
3 6 10 8 10 10 10 8 7 8 9 9 9 8 7 7 7 7 7 6 6 6 5 5 6 7 6 6 6 6 5 5 5 5 5 5 6 6 6 5 4 5 4 5 4 4 5 6 6 6 5 4 4 3 2 3 3 1 0 1 1 3 4 3 3 3 1 1 1 3 4 5 4 4 5 7 6 6 4 5 5 5 5 4 5
6 9 7 7 7 7 8 7 9 8 9 8 7 6 7 7 7 6 7 6 6 6 6 6 6 6 6 6 7 6 6 5 6 6 6 5 6 6 6 5 6 6 4 6 5 5 6 6 6 6 4 4 3 2 2 1 2 3 2 2 2 4 3 4 3 4 2 1 1 2 2 3 4 2 4 4 7 6 6 5 5 6 6 5 4
4 7 4 5 6 10 8 8 8 9 8 7 7 7 7 7 7 6 6 6 6 7 6 6 5 6 6 6 6 6 6 6 6 6 6 5 6 5 5 5 5 5 5 6 6 5 5 6 6 5 5 4 4 3 3 3 3 3 4 4 4 4 4 5 4 4 3 2 1 1 1 2 3 3 3 5 5 7 8 5 7 5 5 5 5
3 5 4 4 7 4 5 9 8 9 8 7 8 7 6 7 6 7 7 6 6 6 6 5 5 5 6 6 6 6 6 6 7 7 5 6 5 5 5 6 5 5 5 5 6 6 5 6 6 6 6 5 4 4 4 4 4 4 5 4 4 4 4 4 4 4 3 3 2 1 1 1 1 1 2 5 6 6 7 8 7 5 5 6 6
8 7 7 4 3 2 5 9 9 9 7 7 7 6 7 7 7 7 7 6 6 6 4 5 5 5 5 6 7 6 7 7 6 5 7 6 5 5 5 5 6 5 6 6 5 5 6 5 5 6 6 5 4 5 4 5 4 4 5 5 4 5 5 5 4 5 4 3 2 1 1 1 1 1 2 3 6 6 6 8 7 7 7 7 8
7 9 9 7 4 4 7 6 6 5 5 8 7 8 6 7 7 6 6 7 7 5 5 5 5 5 5 5 5 5 6 6 6 7 6 6 6 6 6 5 5 5 5 5 4 5 5 6 6 6 6 5 5 3 5 5 5 5 4 5 6 4 4 4 4 4 4 4 3 2 1 2 2 2 1 5 6 7 6 7 8 7 7 8 9
9 12 9 9 7 4 6 6 6 5 6 6 6 7 7 7 6 6 6 6 6 6 6 6 6 6 6 6 6 6 5 5 6 6 7 6 6 6 6 6 6 5 5 5 6 4 5 4 4 4 4 4 4 3 3 4 5 5 4 4 4 4 4 4 4 4 4 3 3 2 2 1 2 3 3 2 6 4 4 4 4 2 3 3 10
7 7 9 8 10 5 3 4 4 5 6 7 7 5 6 6 6 7 6 6 6 6 6 7 6 6 6 6 7 6 6 6 6 7 7 7 7 7 6 6 6 6 5 5 5 4 4 4 3 2 3 3 3 4 2 3 4 5 4 4 4 4 4 4 4 4 4 4 4 3 2 1 1 3 4 4 4 5 5 4 4 2 1 2 3
8 8 11 14 10 7 3 0 3 6 6 4 4 6 5 5 6 6 6 6 6 6 7 6 6 6 6 7 7 7 7 6 6 6 6 6 6 7 7 7 6 5 5 5 6 5 5 4 4 4 4 4 5 4 4 5 4 3 4 4 4 5 4 4 4 5 4 4 3 3 3 1 1 1 1 3 4 4 4 4 3 2 2 2 3
9 11 12 10 12 11 9 6 6 2 2 0 1 1 2 4 5 6 6 6 6 6 6 6 6 6 6 6 7 7 7 7 6 7 6 6 6 6 6 7 6 6 6 6 7 6 6 6 6 5 3 4 4 5 5 6 4 6 5 4 5 4 3 4 4 4 4 4 3 3 3 3 2 1 1 1 3 3 3 4 3 3 2 2 3
12 9 9 10 13 12 11 10 10 8 5 4 3 2 2 2 2 4 5 5 6 6 6 6 6 5 6 6 6 7 7 7 7 7 7 6 7 7 7 6 6 6 6 5 5 6 6 5 5 6 6 5 4 6 3 5 4 5 4 4 4 4 5 4 4 4 4 4 5 4 4 3 3 3 2 1 1 0 2 2 2 2 2 2 1
10 12 11 11 13 12 13 13 12 10 9 9 7 6 6 5 4 4 2 2 2 2 3 3 5 6 6 6 5 6 6 6 7 7 7 7 7 7 6 6 6 6 6 6 6 6 6 6 5 6 6 7 6 5 4 4 5 5 4 5 5 5 6 5 5 6 4 5 5 5 4 4 4 4 3 3 2 1 1 1 2 2 2 1 1
10 11 10 10 9 9 10 11 11 10 9 8 7 7 7 7 7 6 6 7 6 5 4 3 2 2 4 5 4 5 5 5 6 6 6 7 7 6 5 5 6 6 6 6 6 4 5 6 7 5 6 5 7 7 7 5 4 4 5 5 5 4 6 6 6 6 7 6 6 7 8 7 6 5 5 4 3 2 1 1 1 1 1 1 2
10 11 12 11 11 10 10 12 12 11 10 9 8 8 8 7 7 8 8 8 8 8 7 7 5 5 4 1 1 3 4 5 5 5 6 6 6 6 6 7 6 6 6 6 4 4 4 5 7 6 4 5 6 6 6 5 3 3 4 4 3 4 3 4 4 4 6 6 7 7 6 7 7 6 6 5 4 4 4 2 1 1 1 2 2
11 12 13 14 14 13 10 12 11 9 8 9 9 8 8 8 8 8 10 8 8 8 8 7 6 6 5 6 5 4 3 1 1 3 5 6 5 5 6 5 6 6 6 6 6 6 9 7 7 7 6 2 0 3 3 4 1 0 2 3 3 3 4 4 4 4 5 5 5 2 4 5 6 5 5 6 6 5 5 4 3 4 3 3 3
13 13 14 15 14 12 13 13 10 10 9 8 8 7 7 6 7 7 6 6 6 7 8 7 8 7 7 7 7 6 4 5 5 5 5 3 1 1 3 4 3 4 6 8 9 10 8 7 6 4 6 5 3 2 3 5 4 0 2 3 5 3 3 2 4 5 6 5 3 5 5 4 4 4 6 4 4 4 4 4 5 5 5 4 4
12 13 14 12 12 14 14 12 11 11 11 8 6 7 4 3 5 4 4 6 8 8 7 7 7 7 9 9 8 7 6 7 6 4 4 4 3 3 2 1 1 5 7 4 3 2 3 4 4 3 2 6 6 5 5 6 0 5 2 3 4 6 4 4 5 6 6 4 4 5 6 6 6 6 4 4 5 5 5 5 4 5 4 5 5
10 12 12 14 15 13 12 12 12 11 10 10 9 6 5 6 6 5 5 4 4 4 4 3 5 7 8 8 9 9 9 7 6 6 5 4 3 2 2 2 1 3 2 1 2 5 5 6 6 7 4 1 2 2 5 7 6 3 2 1 4 2 4 5 6 7 4 5 5 6 7 6 7 5 5 5 6 6 5 5 5 5 5 5 5
11 13 13 13 11 12 12 12 12 12 11 10 8 5 5 5 6 7 8 9 5 7 9 10 11 10 9 7 7 7 7 8 9 8 6 6 4 3 2 1 0 0 1 2 1 3 2 3 5 6 4 4 3 5 6 8 5 7 3 7 3 1 6 7 9 6 6 8 6 8 4 7 6 5 4 7 7 6 6 6 7 6 6 6 5
11 12 11 11 9 11 11 10 10 11 10 12 11 8 9 9 7 9 9 10 11 11 11 11 10 10 10 11 10 8 7 7 6 7 7 6 5 4 3 1 0 0 1 2 2 4 3 3 3 4 5 7 6 4 4 6 7 7 6 3 1 2 6 4 1 6 2 5 8 7 6 6 7 7 6 7 5 7 7 6 6 6 7 6 5
11 9 8 9 10 10 11 11 10 11 11 12 11 10 10 10 11 11 10 8 9 10 10 8 9 9 7 7 12 11 12 10 8 7 6 6 6 4 4 3 2 1 1 2 2 2 3 4 5 5 6 5 6 5 5 4 8 8 5 3 4 4 1 2 1 7 2 4 4 4 6 7 5 6 6 7 7 7 5 7 6 8 7 6 6
9 7 8 9 11 10 10 11 11 10 11 11 12 9 10 9 10 9 8 8 7 6 4 5 7 7 7 11 9 11 11 12 12 11 11 10 8 7 5 3 2 1 1 1 3 4 4 4 3 4 6 6 4 6 7 6 3 7 7 8 5 2 2 1 5 1 6 1 3 6 7 4 4 5 6 8 8 6 7 7 8 8 7 6 6
6 7 9 9 12 11 12 12 11 12 11 10 12 11 9 9 10 10 9 9 8 6 7 7 7 7 10 10 9 9 10 10 11 11 12 11 11 11 9 6 5 3 1 1 3 3 3 3 2 3 3 4 5 7 7 6 7 5 8 12 10 6 3 1 3 3 3 6 5 2 3 5 5 6 7 8 9 9 9 8 8 7 6 7 7
8 9 8 8 8 9 11 12 14 12 11 12 11 11 10 10 9 9 10 8 7 7 6 8 9 8 11 10 10 9 10 10 10 10 11 11 10 10 10 10 9 7 3 3 3 3 3 3 3 3 4 5 5 6 6 6 6 8 5 6 8 10 8 7 3 2 4 4 7 4 5 2 3 6 8 9 8 9 10 9 8 8 7 8 8
7 6 6 7 9 10 12 14 14 11 10 12 11 12 11 10 12 11 12 10 8 8 9 10 9 8 10 10 8 9 9 9 10 10 11 11 10 10 10 10 9 9 7 4 3 4 4 3 3 4 3 4 4 5 7 6 6 6 7 5 6 4 7 7 6 6 5 6 13 7 5 7 8 8 10 10 12 11 8 7 7 8 8 8 8
5 6 9 9 10 11 11 15 12 10 11 11 11 12 11 11 11 10 11 11 10 10 11 11 10 11 10 10 9 8 8 9 9 9 10 11 11 9 9 9 8 9 9 9 8 6 5 3 4 4 4 4 5 5 6 6 7 7 7 6 8 8 9 8 8 7 9 9 6 8 5 7 9 8 6 10 10 9 8 7 8 9 10 9 8
Wind_Direction
214 177 180 187 183 179 176 174 171 169 167 166 164 164 162 160 157 157 157 155 153 152 149 147 148 147 143 143 142 138 135 131 130 124 121 118 115 113 112 106 98 90 101 99 104 106 103 103 98 92 87 82 81 78 76 71 69 66 64 67 67 59 52 48 50 51 38 56 76 83 85 87 86 90 94 96 91 81 64 55 51 50 55 63 72
178 182 178 185 183 179 177 176 174 171 169 168 165 165 165 162 160 160 160 159 155 156 153 151 154 150 149 147 146 145 140 138 134 128 123 119 113 110 107 104 103 105 103 116 116 112 110 101 97 90 84 78 75 73 70 66 63 60 55 51 56 60 53 47 45 39 42 37 34 39 58 85 88 90 93 92 89 83 69 59 53 43 55 72 72
148 170 177 185 184 178 178 177 176 175 173 171 168 166 165 162 160 162 162 163 161 163 162 157 157 155 154 152 151 150 145 141 137 135 128 123 117 117 109 90 88 111 120 119 113 110 106 101 93 88 82 79 73 67 63 61 57 55 53 48 43 46 51 47 41 36 29 26 26 29 40 68 89 93 96 93 89 78 66 70 85 89 73 70 71
150 171 174 183 185 179 178 175 176 177 174 174 170 168 165 164 163 163 163 166 167 164 165 162 161 158 157 155 153 153 147 143 141 139 136 129 120 107 102 97 100 100 117 119 115 114 108 100 92 87 82 77 74 66 59 52 47 42 37 36 35 37 41 40 35 27 21 9 9 16 31 32 77 98 97 95 92 82 67 61 67 76 72 68 67
154 163 175 179 183 184 180 175 175 177 174 174 173 169 169 169 168 166 165 168 169 165 166 166 165 160 157 156 156 154 151 147 145 142 137 130 117 110 104 103 104 116 123 120 116 110 104 95 91 86 80 73 68 63 57 49 43 35 28 22 19 23 33 36 26 15 8 353 343 15 26 2 50 98 100 99 96 96 85 76 75 70 67 74 70
155 161 170 177 181 185 186 177 176 175 177 174 175 172 171 172 171 172 171 168 172 171 170 169 168 166 162 159 159 159 157 156 154 147 141 136 127 117 113 120 121 130 119 117 115 108 98 96 91 85 79 72 65 58 51 45 39 34 27 18 13 9 20 31 20 8 354 349 344 78 60 28 26 70 106 106 103 100 95 92 86 81 67 60 67
154 160 166 176 181 186 187 183 179 177 178 175 175 176 174 175 174 175 175 176 172 174 173 172 171 168 168 164 162 164 164 163 159 152 147 144 138 127 127 133 133 126 133 128 115 104 94 90 87 81 74 65 59 51 45 41 35 30 25 20 12 9 10 25 14 6 356 13 57 104 84 57 34 56 99 106 112 106 98 92 89 85 80 70 64
148 160 169 173 179 187 185 185 183 182 180 178 177 177 176 174 175 174 177 180 176 177 176 174 173 173 173 171 167 167 168 167 164 156 153 146 139 137 146 133 126 141 129 119 112 100 87 86 87 89 75 64 49 45 41 38 33 28 25 21 19 16 11 14 16 19 11 30 80 99 85 72 76 55 115 98 96 96 100 98 92 89 86 79 62
162 165 166 171 178 184 185 184 184 184 183 181 183 180 178 175 175 179 179 180 179 180 180 177 177 178 176 176 175 175 174 169 166 161 158 147 147 147 139 133 143 138 129 122 113 100 90 83 87 90 80 70 58 42 39 33 30 30 23 24 27 22 14 19 34 34 19 41 82 97 102 98 72 59 114 111 96 89 76 69 82 90 89 84 79
165 165 169 171 177 182 183 184 185 185 184 182 183 183 182 179 177 181 182 180 182 180 184 182 181 182 181 183 181 184 178 171 167 165 158 151 143 147 143 139 147 145 137 134 119 107 100 107 96 91 88 77 66 50 40 34 33 33 31 36 34 27 30 43 47 45 51 56 69 89 106 106 105 113 109 107 101 86 81 89 91 88 88 85 83
165 171 171 174 178 180 184 184 185 187 186 180 181 182 183 182 181 183 183 182 184 182 184 188 188 186 188 187 187 185 178 169 178 165 160 157 152 154 152 150 150 150 147 140 140 141 123 111 115 93 81 77 68 54 43 41 40 39 44 43 36 36 43 50 53 53 56 58 58 43 63 106 117 103 102 99 90 84 82 78 87 95 95 93 87
170 171 175 177 179 181 184 185 185 187 187 181 180 182 183 182 184 185 186 186 188 187 188 190 191 191 192 191 191 186 180 172 178 165 163 158 156 155 156 153 155 156 154 146 153 168 166 157 113 104 103 86 71 54 49 52 48 48 52 43 39 41 42 47 51 50 51 52 53 44 39 34 126 128 106 99 102 95 87 87 86 86 78 74 80
173 172 175 176 181 185 186 186 186 188 187 181 181 185 186 183 186 188 188 189 192 193 194 194 195 195 195 194 194 186 183 177 172 163 159 162 157 161 161 152 147 149 135 76 76 156 189 134 90 106 104 90 77 61 62 58 55 57 50 43 38 40 47 52 54 54 49 44 42 31 30 18 303 125 107 103 90 89 88 82 77 76 73 69 64
171 176 175 176 183 187 187 188 187 188 187 184 184 186 188 185 185 189 189 190 194 196 198 199 201 200 198 198 193 185 184 176 170 164 164 165 158 160 159 153 155 158 154 143 108 41 60 161 119 105 104 98 81 74 69 58 58 58 48 41 39 41 55 56 60 62 57 45 36 29 26 5 38 83 100 114 103 87 80 78 76 77 74 67 65
170 177 176 176 181 186 190 189 188 189 189 186 187 190 189 188 188 190 191 190 192 195 198 200 201 207 205 200 194 185 183 185 169 168 167 165 168 166 162 161 159 162 166 151 177 169 145 129 133 117 109 99 94 95 85 73 68 61 55 48 45 50 61 67 60 58 58 50 33 31 21 3 76 102 99 87 88 88 88 80 84 65 68 66 61
171 173 173 179 180 183 189 192 189 190 191 189 189 193 193 190 189 192 192 191 192 194 196 199 199 205 209 193 196 189 185 186 175 171 169 167 170 170 167 166 172 184 190 195 201 176 202 161 164 115 110 105 111 102 93 85 79 74 64 56 54 65 69 85 76 60 59 54 38 33 17 5 35 102 114 103 97 98 94 93 78 82 84 75 68
170 170 170 181 181 183 189 191 192 191 192 190 190 194 196 194 190 192 194 192 193 194 195 196 197 200 203 197 194 192 192 193 181 176 170 165 173 175 171 174 181 195 230 220 211 194 173 175 115 116 118 118 119 108 95 89 84 80 69 57 57 66 74 88 85 78 72 60 52 29 11 5 47 89 113 118 119 113 119 93 98 85 74 78 67
162 170 180 179 182 187 188 190 191 193 194 193 193 194 196 196 194 193 195 195 193 194 194 195 197 196 191 188 182 190 184 187 184 173 171 162 170 169 171 178 183 190 202 195 182 176 186 119 122 123 129 129 122 110 100 94 91 82 67 57 54 61 68 83 87 80 74 69 50 31 15 16 70 100 97 105 98 93 91 104 99 91 86 69 68
166 191 179 177 189 184 188 190 192 193 195 193 193 198 197 198 195 196 197 197 195 194 194 194 196 195 184 181 183 185 179 181 180 175 171 166 169 162 170 177 182 181 183 186 174 166 118 123 124 134 134 136 131 117 106 98 94 81 66 57 58 64 77 82 79 74 70 60 38 28 356 42 93 100 113 109 99 95 94 99 98 73 51 72 106
182 187 189 195 181 183 187 191 193 195 195 194 196 195 201 199 198 197 198 199 199 197 195 194 195 192 182 181 183 184 177 182 181 177 169 165 165 162 171 178 177 177 178 178 174 163 125 130 138 137 143 145 140 124 115 113 102 82 64 60 64 72 74 81 85 73 64 56 44 14 353 60 115 111 108 101 106 108 114 133 118 94 84 105 114
226 218 200 197 188 184 187 190 197 197 198 196 198 198 199 199 200 199 198 199 198 197 196 195 194 192 182 184 183 181 180 179 177 172 166 161 163 165 170 171 169 172 173 175 181 171 137 146 147 152 150 151 131 118 120 123 105 82 64 63 67 73 87 85 81 76 60 39 26 359 4 87 121 126 117 125 131 140 139 120 130 146 134 114 114
234 231 235 209 191 200 194 192 193 200 196 197 199 200 199 197 199 198 198 199 198 194 194 190 190 191 185 183 179 182 179 177 176 165 164 163 163 165 167 167 164 158 160 174 183 185 175 157 157 159 162 128 105 80 50 68 95 76 67 63 66 84 90 93 88 81 63 29 15 358 11 116 134 138 130 124 128 132 133 125 122 129 140 139 134
255 240 231 206 201 196 194 197 201 197 196 198 199 198 198 198 203 197 196 197 196 194 191 188 184 187 186 182 177 176 179 171 170 168 163 167 168 170 170 166 161 156 158 169 184 189 182 176 166 169 139 114 103 106 89 146 81 68 65 65 70 86 98 91 88 83 78 30 8 4 15 33 154 144 142 128 121 130 136 136 135 135 137 132 148
230 215 216 203 197 199 200 200 199 194 194 200 200 200 201 196 200 199 195 195 193 192 191 188 187 186 182 177 175 172 179 169 170 167 160 166 175 175 173 169 164 160 165 162 188 190 167 167 174 141 114 115 125 134 159 166 93 74 69 66 70 93 104 110 107 100 69 28 9 13 12 14 331 181 147 145 131 137 149 155 134 106 123 133 150
218 220 230 218 206 200 196 205 196 191 194 199 201 205 202 196 200 199 196 192 191 189 191 190 186 184 180 175 173 165 169 164 161 163 165 164 165 176 173 167 161 167 162 165 170 164 145 144 124 116 133 139 146 183 165 147 90 71 58 48 77 97 102 109 116 105 83 40 2 20 9 2 350 191 179 142 154 162 158 133 148 151 120 155 164
200 201 220 216 213 202 194 196 189 195 195 197 201 201 195 203 201 200 195 193 191 189 190 188 184 184 178 177 164 165 165 158 163 166 166 168 168 175 176 166 163 176 163 162 157 145 142 131 137 138 153 151 173 186 193 168 138 119 21 122 136 113 121 121 124 123 119 60 0 19 7 352 348 233 164 184 155 185 182 151 159 155 158 166 180
212 220 218 223 215 210 202 179 194 196 201 200 196 190 199 204 205 202 198 197 189 190 194 191 187 181 177 172 169 174 169 166 171 172 174 173 175 176 175 172 173 176 176 155 161 160 150 148 150 157 148 160 183 206 220 213 152 161 191 180 193 146 139 145 142 140 162 126 28 24 1 351 347 298 189 184 178 170 189 184 148 184 166 166 185
297 283 289 260 209 213 199 182 192 191 201 192 189 191 197 197 200 197 205 200 191 196 198 197 180 178 176 176 181 171 169 173 178 178 182 173 183 178 173 177 176 180 176 165 161 167 159 152 153 156 156 171 185 215 217 215 192 168 167 193 183 160 159 159 161 159 167 169 147 7 4 339 334 335 204 180 196 175 185 182 193 174 152 194 189
342 297 259 260 267 265 190 197 191 192 193 183 193 193 185 191 190 194 201 193 199 202 200 185 186 180 176 175 179 175 176 177 181 186 161 187 179 177 176 185 180 178 167 181 170 168 169 165 164 166 172 176 192 208 203 207 194 182 169 184 174 175 164 159 163 166 173 173 178 167 89 304 319 250 268 201 190 205 179 194 209 198 190 161 211
341 314 316 266 231 230 230 209 197 192 179 174 194 184 187 184 193 196 194 183 199 195 181 186 194 182 186 186 189 183 182 181 184 174 175 185 180 181 184 186 184 176 177 181 185 168 172 168 165 168 175 182 187 209 180 189 192 184 181 169 180 182 174 166 170 172 176 175 187 174 139 151 335 154 197 219 194 195 199 195 207 215 205 175 195
337 343 336 312 247 183 208 220 216 193 163 183 187 193 176 190 190 186 178 188 189 181 183 185 187 190 193 193 193 197 183 181 179 177 183 180 180 181 193 179 186 190 182 181 171 179 171 179 175 173 179 182 201 197 189 176 188 191 190 169 189 180 184 175 165 170 168 182 178 175 160 125 120 78 182 196 205 199 202 198 204 215 197 203 198
359 346 333 321 301 226 201 201 200 186 179 189 179 185 189 190 177 172 184 185 170 179 185 183 191 194 188 189 194 198 187 186 180 179 182 178 182 185 183 182 195 185 186 175 174 170 172 175 170 170 175 175 195 205 218 175 192 202 187 191 180 186 190 176 170 177 180 178 180 172 158 114 92 87 53 143 173 179 189 171 162 194 204 289 230
352 344 335 340 348 307 249 214 181 176 188 193 189 184 173 173 170 179 177 171 175 175 182 189 193 194 188 189 195 196 192 185 190 185 183 180 179 180 184 194 189 183 183 172 164 158 149 155 177 154 162 167 181 214 223 209 189 215 199 205 180 203 200 173 181 176 183 185 184 173 164 138 80 64 64 54 89 126 132 136 133 117 23 290 275
353 353 6 11 356 351 336 302 182 183 195 184 165 172 173 164 163 162 160 163 175 176 187 190 189 191 191 194 194 196 195 194 183 188 181 176 178 185 185 190 188 181 171 158 169 165 162 161 180 158 186 181 198 204 192 213 228 216 213 202 193 204 193 192 184 190 181 186 185 170 171 159 124 91 43 54 48 75 109 118 110 82 53 349 323
8 14 17 2 15 16 9 23 6 31 37 44 120 146 140 146 155 156 163 166 167 174 180 181 186 194 188 195 194 194 197 191 186 179 184 177 177 187 193 195 178 172 175 177 167 170 166 179 162 180 183 206 204 202 200 206 200 211 213 193 203 208 200 202 195 189 189 189 178 182 175 169 169 147 112 54 43 50 72 97 114 94 77 44 7
16 10 16 19 27 22 21 33 24 24 33 42 51 72 89 103 125 153 157 162 160 167 173 183 185 181 185 194 198 194 192 188 181 177 178 184 184 189 198 177 176 168 178 172 163 174 175 172 185 171 176 214 201 226 215 209 208 215 220 204 209 194 203 212 208 208 207 176 189 185 188 184 179 177 183 189 162 67 83 92 107 94 78 70 64
14 17 18 24 30 22 27 30 28 27 27 27 36 39 37 41 40 43 62 76 102 143 159 149 153 171 181 192 193 189 187 181 180 181 178 184 188 191 188 180 166 171 172 176 183 178 170 178 186 197 186 186 197 211 218 220 216 220 215 209 210 192 197 202 207 209 189 190 191 192 192 197 193 188 181 189 200 222 126 88 75 63 27 64 122
20 21 20 28 32 29 33 32 30 29 31 31 32 40 43 50 44 44 45 43 31 27 37 61 72 122 164 184 179 173 172 173 175 180 187 189 188 185 169 166 165 166 170 172 193 169 176 175 190 202 192 174 196 200 214 213 215 223 226 217 217 199 205 203 209 207 193 198 192 191 198 189 185 193 192 193 197 203 212 197 140 82 0 312 179
21 20 24 23 27 28 33 34 33 25 27 28 27 39 37 41 48 40 40 35 34 35 32 39 22 29 24 30 126 153 167 165 169 173 176 176 179 180 176 177 170 165 163 174 168 167 173 190 192 197 206 208 194 201 195 178 205 244 257 263 276 251 257 245 236 226 217 208 199 202 184 190 186 190 191 190 195 193 193 211 206 239 278 282 244
26 23 26 26 23 20 24 35 29 27 35 36 32 31 38 38 35 26 34 20 28 35 32 34 32 39 28 33 30 29 25 24 141 179 172 169 172 177 181 165 170 163 165 169 178 179 191 190 206 187 192 207 101 160 125 131 64 18 310 310 307 308 277 258 257 241 232 227 229 208 203 200 196 192 189 195 189 194 193 200 208 221 230 251 268
29 27 32 27 24 19 22 24 9 21 35 39 39 40 35 26 37 41 44 28 34 38 38 21 29 27 29 31 32 38 46 48 36 22 9 4 351 127 149 152 154 174 178 192 191 194 195 191 178 167 175 186 227 148 160 131 130 219 352 330 310 306 295 307 266 253 242 235 232 210 229 205 211 193 206 195 196 197 201 204 213 219 223 223 239
22 31 35 32 28 25 27 17 13 17 20 17 33 51 39 81 99 70 84 47 37 39 36 27 26 30 29 25 24 28 38 39 31 48 50 46 36 19 355 342 207 203 202 187 171 171 150 161 146 171 198 184 211 178 175 125 219 195 197 289 312 301 285 306 277 255 241 247 228 221 217 211 209 209 199 190 203 203 205 211 217 223 229 228 228
29 36 34 37 32 30 24 20 16 15 13 12 22 25 23 36 59 47 51 77 73 70 75 52 36 40 35 28 23 18 19 27 31 33 37 38 55 62 40 40 15 1 340 248 169 183 187 184 179 188 199 224 205 166 178 197 182 127 112 64 284 290 308 274 262 250 246 235 230 227 221 218 217 206 196 197 209 208 209 207 212 217 227 230 231
26 30 28 34 36 33 29 25 19 14 11 7 15 12 42 52 55 59 53 68 50 22 27 24 16 20 22 22 31 21 23 21 15 20 29 32 35 50 66 72 65 103 236 294 278 254 197 189 190 211 176 192 209 223 192 202 147 136 259 212 228 151 300 259 239 247 203 223 223 229 222 223 222 216 198 208 211 212 216 201 210 210 218 221 223
31 31 29 31 37 36 35 38 33 21 13 8 9 16 31 33 30 40 42 38 31 30 28 16 12 11 11 5 359 8 15 27 21 21 25 24 30 30 35 34 59 147 166 250 241 230 224 230 215 210 199 208 221 220 216 204 216 218 172 96 342 276 228 251 348 277 227 220 235 232 226 225 221 215 210 226 217 217 213 211 214 215 219 217 220
32 25 30 37 40 37 36 40 43 36 22 13 10 25 37 43 42 42 38 37 39 28 26 12 7 16 3 358 10 12 7 1 10 13 21 20 19 32 35 29 1 342 223 234 252 267 244 224 212 214 222 232 234 211 235 222 225 233 231 208 148 182 224 270 89 278 324 239 258 240 233 231 226 220 226 229 223 226 219 222 213 220 218 218 215
19 14 28 34 40 43 39 40 42 42 32 23 16 24 39 44 56 63 61 54 54 34 28 26 25 10 22 21 11 15 15 15 6 9 3 5 2 7 23 33 9 351 318 276 272 253 246 231 223 208 221 223 219 239 225 228 227 251 253 254 258 197 156 122 246 340 313 317 250 236 248 253 247 243 237 235 232 228 228 222 222 221 220 219 215
6 21 34 32 36 36 41 41 41 40 37 31 29 24 38 37 45 50 50 47 47 33 20 17 25 24 29 20 16 13 13 20 17 13 12 9 4 358 355 359 6 3 352 289 270 284 293 281 236 238 247 235 218 227 236 215 214 227 214 242 250 235 178 164 169 216 257 287 303 299 274 246 245 243 240 240 231 224 225 223 225 219 220 222 217
24 29 31 34 38 39 43 44 42 37 31 34 38 31 36 41 47 46 51 41 40 33 24 32 31 20 32 19 20 10 13 15 19 15 12 10 8 2 356 353 349 350 -0 335 317 324 300 293 285 253 233 237 225 231 235 233 217 236 225 241 240 247 244 229 210 168 238 279 271 225 262 289 247 250 245 236 238 230 225 222 217 217 217 222 216
20 23 36 42 42 43 42 45 39 35 29 33 37 38 35 36 44 41 49 41 35 32 38 33 29 22 31 22 17 18 10 12 11 14 13 8 6 4 2 357 349 340 341 331 321 330 321 311 292 282 273 258 249 235 235 244 237 240 232 241 233 242 254 267 250 247 253 207 257 262 223 227 242 240 230 232 229 228 227 224 219 221 222 220 216
22 30 37 39 42 43 42 47 36 34 30 32 35 37 37 37 41 39 42 41 34 38 38 31 24 27 28 20 19 12 14 15 11 11 15 7 1 3 2 355 356 356 349 346 336 325 310 305 301 313 297 276 269 261 254 251 251 249 242 234 243 231 237 236 238 225 233 251 265 261 253 225 229 255 247 232 233 229 220 215 221 222 221 220 216